Tracking 35055 objects as of 18-Aug-2026
HD Live streaming from Space Station
objects crossing your sky now

COSMOS 57 DEB


COSMOS 57 DEB is no longer on orbit


NORAD ID: 1112
Int'l Code: 1965-012Q
Launch date: February 22, 1965
Source: Commonwealth of Independent States (former USSR) (CIS)
Launch site: TYURATAM MISSILE AND SPACE COMPLEX (TTMTR)
Decay date: 1965-03-01

Note: This is SATELLITE DEBRIS
Your satellite tracking list
Your tracking list is empty




NASA's NSSDC Master Catalog

Two Line Element Set (TLE):
1 01112U 65012  Q 65057.04243276  .00000000 +00000-0 +00000-0 0  9990
2 01112 064.5966 286.5781 0104039 358.8222 001.2583 16.35125120000619
Source of the keplerian elements: AFSPC